This is the latest recevied weather packets stored in our database for station/object K7DC. If no packets are shown the sender has not sent any weather packets the latest 10 day(s).
| Time | Temp. | Humidity | Pressure | Rain* | Wind** | Luminosity | Snow |
|---|---|---|---|---|---|---|---|
| 1777739465 | 25.56° C | 35% | 1016.1 hPa | 0 mm | - | 681 W/m² | - |
| 1777739162 | 25.56° C | 35% | 1016.1 hPa | 0 mm | - | 667 W/m² | - |
| 1777738859 | 25.56° C | 35% | 1016.1 hPa | 0 mm | - | 653 W/m² | - |
| 1777738556 | 25.56° C | 34% | 1016.1 hPa | 0 mm | - | 636 W/m² | - |
| 1777738254 | 25.56° C | 34% | 1016.1 hPa | 0 mm | - | 619 W/m² | - |
| 1777737952 | 25° C | 35% | 1015.9 hPa | 0 mm | - | 604 W/m² | - |
| 1777737649 | 25° C | 34% | 1016.4 hPa | 0 mm | - | 587 W/m² | - |
| 1777737348 | 24.44° C | 36% | 1016.3 hPa | 0 mm | - | 571 W/m² | - |
| 1777737045 | 24.44° C | 35% | 1016.1 hPa | 0 mm | - | 553 W/m² | - |
| 1777736740 | 24.44° C | 36% | 1016.4 hPa | 0 mm | - | 530 W/m² | - |
| 1777736106 | 23.89° C | 35% | 1016.1 hPa | 0 mm | - | 497 W/m² | - |
| 1777735804 | 23.89° C | 36% | 1016.1 hPa | 0 mm | - | 480 W/m² | - |
| 1777735501 | 23.89° C | 37% | 1016.3 hPa | 0 mm | - | 459 W/m² | - |
| 1777735199 | 23.33° C | 39% | 1016 hPa | 0 mm | - | 440 W/m² | - |
| 1777734895 | 23.33° C | 39% | 1015.8 hPa | 0 mm | - | 422 W/m² | - |
| 1777734593 | 23.33° C | 39% | 1015.8 hPa | 0 mm | - | 405 W/m² | - |
| 1777734289 | 22.78° C | 40% | 1016 hPa | 0 mm | - | 316 W/m² | - |
| 1777733985 | 22.78° C | 40% | 1015.7 hPa | 0 mm | - | 356 W/m² | - |
| 1777733683 | 22.22° C | 42% | 1015.8 hPa | 0 mm | - | 389 W/m² | - |
| 1777733379 | 22.22° C | 41% | 1015.9 hPa | 0 mm | - | 312 W/m² | - |
| 1777733076 | 21.67° C | 42% | 1015.7 hPa | 0 mm | - | 291 W/m² | - |
| 1777732772 | 21.67° C | 43% | 1015.7 hPa | 0 mm | - | 271 W/m² | - |
| 1777732469 | 21.67° C | 43% | 1015.6 hPa | 0 mm | - | 253 W/m² | - |
| 1777732166 | 21.11° C | 44% | 1015.6 hPa | 0 mm | - | 237 W/m² | - |
| 1777731863 | 20.56° C | 45% | 1015.7 hPa | 0 mm | - | 218 W/m² | - |
* Rain latest hour (hover to see other rain measurements)
** Current wind speed in m/s (hover to see current wind gust speed)